Hourly Data Report for July 13, 2004

SHERBROOKE A
QUEBEC

45°26'00.000" N
71°41'00.000" W
241.40 m
7028124
71610
YSC

Download Data

Hourly Data (July 2004)
Hourly Data Report for July 13, 2004
TIME
LST
Temp Definition
°C
Dew Point Definition
°C
Rel Hum Definition
%
Precip. Amount Definition
mm

Wind Dir Definition
10's deg

Wind Spd Definition
km/h
Visibility Definition
km
Stn Press Definition
kPa
Hmdx Definition


Wind Chill Definition


Weather Definition


00:00 16.7 15.8 94     0 0.8 98.63      
01:00 16.6 15.7 94   13 7 4.8 98.59      
02:00 16.3 15.4 94   6 4 4.8 98.60      
03:00 16.2 15.3 94   12 7 5.6 98.59      
04:00 16.0 15.0 94   8 4 9.7 98.61      
05:00 16.3 14.7 90   12 7 11.3 98.60      
06:00 17.7 15.3 86   14 6 15.0 98.63      
07:00 19.5 15.9 80   13 6 24.1 98.63     Mainly Clear
08:00 20.8 15.7 73   19 9 24.1 98.64 25   Mainly Clear
09:00 22.2 15.5 66   21 17 24.1 98.61 26   Mainly Clear
10:00 23.1 15.2 61   17 15 24.1 98.53 27   Mostly Cloudy
11:00 24.6 15.0 55   22 13 24.1 98.49 29   Mostly Cloudy
12:00 24.5 13.8 51   20 13 24.1 98.49 28   Mostly Cloudy
13:00 24.8 15.2 55   24 13 24.1 98.46 29   Mostly Cloudy
14:00 23.7 15.5 60   21 7 24.1 98.41 28   Mostly Cloudy
15:00 23.6 14.8 58   21 9 24.1 98.36 27   Cloudy
16:00 23.8 15.7 60   19 7 24.1 98.32 28   Mostly Cloudy
17:00 22.8 15.2 62   20 7 15.0 98.29 27    
18:00 22.1 14.4 62   17 13 15.0 98.24 26    
19:00 20.3 14.3 68   16 19 15.0 98.29      
20:00 19.0 14.0 73   16 13 15.0 98.33      
21:00 18.4 13.1 71   15 11 15.0 98.35      
22:00 17.5 13.4 77   13 11 15.0 98.31      
23:00 17.0 13.2 78   13 9 15.0 98.26      

Notes on Data Quality.

Legend

  • E = Estimated
  • M = Missing
  • NA = Not Available*
  • [empty] = Indicates an unobserved value
Date modified: